星链-5717 (STARLINK-5717 )

导读 | 星芒AI

STARLINK-5717 是 SpaceX Starlink 项目中的一颗低轨通信卫星,旨在为全球用户提供高速互联网服务。该卫星属于 Starlink 二代星座计划的一部分,具备先进通信技术和更高的数据传输能力。它运行在约 550 公里的轨道高度,设计寿命较长,支持全球范围内的宽带接入,尤其在偏远地区具有重要意义。STARLINK-5717 的发射和运行有助于提升 Starlink 网络的覆盖密度和稳定性。

基本信息
目录编号:
55618
目录名称:
STARLINK-5717
国际标识:
2023-020BB
轨道中心:
EARTH
卫星名称:
星链-5717
卫星全名:
星链-5717 (STARLINK-5717 )
卫星状态:
在轨 (已飞行1043 天)
发射日期:
2023-02-12 UTC
国别 :
美国 (US)
星等 :
--
轨道信息
数据来源 国际轨道数据
星历时间: 2025-12-21T12:41:36+0800
10小时前
查看轨道信息
半长轴: 6937.232km
偏心率: 0.0001665
轨道倾角: 43.005°
近地点辐角 252.982°
升交点赤经 58.016°
平近点角 107.084°
近地点: 557.939km
远地点: 560.251km
周期: 95.838分钟
每日圈数: 15.02531
详细信息
固有亮度:
5
最大亮度:
2.5
卫星平台:
Starlink v1.5
覆盖范围:
全球
运营商:
太空探索技术公司
运营商所在国:
美国
制造商(研发单位):
太空探索技术公司
制造商所在国:
美国
使用方式:
暂无
卫星简介
星链(Starlink)计划是由太空探索技术公司(SpaceX)提出的一个巨型低轨卫星互联网星座项目,计划在2019年至2024年间在太空搭建由约1.2万颗卫星组成的“星链”网络,其中1584颗将部署在地球上空550千米处的近地轨道,并从2020年开始工作。该卫星仍在工作。
2D轨道图
3D轨道图
轨道高度分析图
轨道倾角分析图
轨道综合分析图
查看轨道综合分析图